FW7441 Weather Reports


Display with metric or nautical units.
time (UTC)temp
F
wind
direction
speed
MPH
gust
MPH
rain 1hr
in
rain 24hr
in
rain mn
in
humidity
%
barometer
mb
20260502191516 53 309 3.0 5.0 0.00 0.01 0.01 47 1017.8
20260502191014 53 257 2.0 2.0 0.00 0.01 0.01 49 1017.5
20260502190512 53 221 3.0 3.0 0.00 0.01 0.01 45 1017.7
20260502190008 54 218 3.0 3.0 0.00 0.01 0.01 48 1017.9
20260502185503 54 74 2.0 2.0 0.00 0.01 0.01 48 1017.9
20260502185000 53 304 3.0 3.0 0.00 0.01 0.01 45 1017.9
20260502184455 53 127 1.0 1.0 0.00 0.01 0.01 48 1018.3
20260502183952 54 287 0.0 1.0 0.00 0.01 0.01 47 1018.0
20260502183449 55 221 0.0 0.0 0.00 0.01 0.01 48 1018.0
20260502182944 54 85 3.0 5.0 0.00 0.01 0.01 45 1018.1
20260502182440 56 354 2.0 3.0 0.00 0.01 0.01 47 1018.2
20260502181936 54 286 1.0 2.0 0.00 0.01 0.01 49 1018.3
20260502181434 53 305 2.0 2.0 0.00 0.01 0.01 48 1018.2
20260502180933 53 312 2.0 2.0 0.00 0.01 0.01 47 1018.2
20260502180429 54 324 3.0 3.0 0.00 0.01 0.01 46 1018.2
20260502170348 53 89 2.0 2.0 0.00 0.01 0.01 49 1018.7
20260502164336 53 154 1.0 1.0 0.00 0.01 0.01 50 1018.9
20260502163831 51 229 1.0 1.0 0.00 0.01 0.01 53 1019.0
20260502163328 51 300 2.0 2.0 0.00 0.01 0.01 49 1019.3
20260502162825 52 205 1.0 2.0 0.00 0.01 0.01 50 1019.3
20260502162316 51 302 2.0 3.0 0.00 0.01 0.01 47 1019.2
20260502161813 51 252 0.0 0.0 0.00 0.01 0.01 55 1019.2
20260502161309 51 251 1.0 2.0 0.00 0.01 0.01 52 1019.3
20260502160807 52 346 0.0 1.0 0.00 0.01 0.01 51 1019.1
20260502160306 50 160 0.0 0.0 0.00 0.01 0.01 54 1019.2
20260502152235 50 259 1.0 2.0 0.00 0.01 0.01 58 1019.3
20260502151733 50 287 2.0 2.0 0.00 0.01 0.01 55 1019.5
20260502151230 49 236 2.0 2.0 0.00 0.01 0.01 55 1019.4
20260502150728 49 275 3.0 5.0 0.00 0.01 0.01 56 1019.5
20260502150224 49 265 1.0 1.0 0.00 0.01 0.01 60 1019.4
20260502130612 42 200 1.0 1.0 0.00 0.01 0.01 82 1019.7
20260502130110 41 218 1.0 1.0 0.00 0.01 0.01 82 1019.7
20260502123555 39 280 0.0 1.0 0.00 0.00 0.00 85 1019.5
20260502123052 38 247 0.0 0.0 0.00 0.00 0.00 87 1019.5
20260502122548 37 289 0.0 0.0 0.00 0.00 0.00 90 1019.4
20260502122046 36 272 0.0 0.0 0.00 0.00 0.00 93 1019.5
20260502121543 36 268 0.0 0.0 0.00 0.00 0.00 96 1019.3
20260502121041 35 262 0.0 0.0 0.00 0.00 0.00 97 1019.6
20260502120537 35 257 0.0 0.0 0.00 0.00 0.00 98 1019.4
20260502115532 34 225 0.0 0.0 0.00 0.00 0.00 98 1019.3
20260502115027 33 213 0.0 0.0 0.00 0.00 0.00 98 1019.2
20260502114524 33 213 0.0 0.0 0.00 0.00 0.00 99 1019.3
20260502114020 32 213 0.0 0.0 0.00 0.00 0.00 99 1019.0
20260502113513 32 213 0.0 0.0 0.00 0.00 0.00 99 1019.1
20260502113011 31 213 0.0 0.0 0.00 0.00 0.00 99 1018.9
20260502112508 31 213 0.0 0.0 0.00 0.00 0.00 99 1018.9
20260502112006 31 213 0.0 0.0 0.00 0.00 0.00 99 1019.0
20260502111503 30 213 0.0 0.0 0.00 0.00 0.00 99 1018.8
20260502111000 30 213 0.0 0.0 0.00 0.00 0.00 99 1018.8
20260502110458 30 213 0.0 0.0 0.00 0.00 0.00 99 1018.8
20260502105955 30 213 0.0 0.0 0.00 0.00 0.00 99 1018.9
20260502105453 30 213 0.0 0.0 0.00 0.00 0.00 99 1019.0
20260502104950 30 213 0.0 0.0 0.00 0.00 0.00 99 1018.7
20260502104447 30 213 0.0 0.0 0.00 0.00 0.00 99 1019.2
20260502103944 30 213 0.0 0.0 0.00 0.00 0.00 99 1018.8
20260502103442 30 213 0.0 0.0 0.00 0.00 0.00 98 1019.1
20260502102938 29 213 0.0 0.0 0.00 0.00 0.00 98 1018.9
20260502102436 30 213 0.0 0.0 0.00 0.00 0.00 98 1018.7
20260502101932 30 213 0.0 0.0 0.00 0.00 0.00 98 1018.7
20260502101430 30 213 0.0 0.0 0.00 0.00 0.00 98 1018.8
20260502100929 30 213 0.0 0.0 0.00 0.00 0.00 98 1018.9
20260502100428 30 213 0.0 0.0 0.00 0.00 0.00 98 1018.7
20260502091402 30 213 0.0 0.0 0.00 0.00 0.00 98 1018.8
20260502090859 30 213 0.0 0.0 0.00 0.00 0.00 98 1018.7
20260502090355 30 213 0.0 0.0 0.00 0.00 0.00 98 1018.7
20260502071251 30 213 0.0 0.0 0.00 0.00 0.00 98 1019.0
20260502070749 30 213 0.0 0.0 0.00 0.00 0.00 98 1019.0
20260502070246 31 213 0.0 0.0 0.00 0.00 0.00 98 1018.8
20260502065745 31 213 0.0 0.0 0.00 0.00 0.00 98 1018.9
20260502065242 31 213 0.0 0.0 0.00 0.00 0.00 98 1018.9
20260502064741 31 213 0.0 0.0 0.00 0.00 0.00 97 1018.9
20260502064238 30 213 0.0 0.0 0.00 0.00 0.00 97 1019.0
20260502063735 31 213 0.0 0.0 0.00 0.00 0.00 97 1019.2
20260502063233 31 213 0.0 0.0 0.00 0.00 0.00 97 1019.1
20260502062730 31 213 0.0 0.0 0.00 0.00 0.00 97 1019.1
20260502062228 31 213 0.0 0.0 0.00 0.00 0.00 97 1019.2
20260502061726 31 213 0.0 0.0 0.00 0.00 0.00 97 1019.3
20260502061223 31 213 0.0 0.0 0.00 0.00 0.00 97 1019.4
20260502060718 31 213 0.0 0.0 0.00 0.00 0.00 97 1019.5
20260502060214 31 213 0.0 0.0 0.00 0.00 0.00 97 1019.2
20260502055713 31 213 0.0 0.0 0.00 0.00 0.00 97 1019.4
20260502055210 31 213 0.0 0.0 0.00 0.00 0.00 97 1019.2
20260502054709 31 213 0.0 0.0 0.00 0.00 0.00 97 1019.3
20260502054206 31 213 0.0 0.0 0.00 0.00 0.00 97 1019.5
20260502053703 31 213 0.0 1.0 0.00 0.00 0.00 97 1019.5
20260502053200 31 213 0.0 1.0 0.00 0.00 0.00 97 1019.4
20260502052659 31 213 0.0 1.0 0.00 0.00 0.00 97 1019.3
20260502052157 31 213 0.0 1.0 0.00 0.00 0.00 97 1019.3
20260502051654 31 213 1.0 1.0 0.00 0.00 0.00 96 1019.3
20260502051152 31 213 0.0 1.0 0.00 0.00 0.00 96 1019.4
20260502050648 31 213 1.0 1.0 0.00 0.00 0.00 96 1019.3
20260502050145 31 213 1.0 1.0 0.00 0.00 0.00 96 1019.3
20260502045641 31 213 0.0 0.0 0.00 0.04 0.04 96 1019.2
20260502045139 31 213 0.0 0.0 0.00 0.04 0.04 96 1019.4
20260502044635 31 213 0.0 0.0 0.00 0.04 0.04 95 1019.3
20260502044126 31 213 0.0 0.0 0.00 0.04 0.04 95 1019.2
20260502043624 31 213 0.0 0.0 0.00 0.04 0.04 95 1019.2
20260502043121 31 213 0.0 1.0 0.00 0.04 0.04 95 1019.1
20260502042620 31 213 0.0 1.0 0.00 0.04 0.04 95 1019.1
20260502042118 31 213 1.0 1.0 0.00 0.04 0.04 95 1019.0
20260502041616 31 213 1.0 1.0 0.00 0.04 0.04 95 1019.0
20260502041113 31 212 1.0 1.0 0.00 0.04 0.04 95 1018.9
20260502040609 31 212 1.0 1.0 0.00 0.04 0.04 95 1018.8
20260502040107 32 211 1.0 1.0 0.00 0.04 0.04 94 1019.1
20260502035603 32 211 0.0 0.0 0.00 0.04 0.04 94 1019.2
20260502035100 32 211 0.0 0.0 0.00 0.04 0.04 94 1019.0
20260502034558 32 211 0.0 0.0 0.00 0.04 0.04 94 1018.8
20260502034056 32 211 0.0 0.0 0.00 0.04 0.04 94 1018.9
20260502033554 32 211 0.0 0.0 0.00 0.04 0.04 94 1019.0
20260502033051 32 211 0.0 0.0 0.00 0.04 0.04 94 1018.9
20260502032547 32 211 0.0 0.0 0.00 0.04 0.04 94 1019.3
20260502032044 32 211 0.0 0.0 0.00 0.04 0.04 94 1019.0
20260502031541 32 211 0.0 0.0 0.00 0.04 0.04 94 1019.0
20260502031039 32 211 0.0 0.0 0.00 0.04 0.04 94 1018.9
20260502030538 32 211 0.0 0.0 0.00 0.04 0.04 94 1018.9
20260502030035 32 211 0.0 0.0 0.00 0.04 0.04 93 1019.1
20260502025532 33 211 0.0 0.0 0.00 0.04 0.04 93 1018.8
20260502025030 33 211 0.0 0.0 0.00 0.04 0.04 93 1019.0
20260502024527 33 211 0.0 0.0 0.00 0.04 0.04 93 1019.0
20260502024025 33 211 0.0 0.0 0.00 0.04 0.04 92 1018.8
20260502023523 33 210 0.0 0.0 0.00 0.04 0.04 92 1018.9
20260502023020 33 210 0.0 0.0 0.00 0.04 0.04 92 1018.9
20260502022516 33 210 0.0 0.0 0.00 0.04 0.04 91 1018.7
20260502022014 34 210 0.0 0.0 0.00 0.04 0.04 90 1018.9
20260502021511 34 210 0.0 0.0 0.00 0.04 0.04 89 1018.7
20260502021008 34 210 0.0 0.0 0.00 0.04 0.04 89 1018.8
20260502020506 34 210 0.0 0.0 0.00 0.04 0.04 89 1018.4
20260502020003 35 209 0.0 0.0 0.00 0.04 0.04 89 1018.4
20260502015501 35 200 0.0 0.0 0.00 0.04 0.04 87 1018.5
20260502014956 35 157 0.0 0.0 0.00 0.04 0.04 86 1018.2
20260502014454 36 152 0.0 0.0 0.00 0.04 0.04 84 1018.4
20260502013950 36 152 0.0 0.0 0.00 0.04 0.04 83 1018.4
20260502013446 37 152 0.0 0.0 0.00 0.04 0.04 82 1018.5
20260502012942 37 149 0.0 0.0 0.00 0.04 0.04 80 1018.4
20260502012440 37 150 1.0 1.0 0.00 0.04 0.04 81 1018.2
20260502011938 37 84 1.0 1.0 0.00 0.04 0.04 82 1018.5
20260502011433 37 122 1.0 1.0 0.00 0.04 0.04 80 1018.3
20260502010931 37 127 0.0 0.0 0.00 0.04 0.04 81 1018.2
20260502010427 37 121 0.0 0.0 0.00 0.04 0.04 82 1018.2
20260502005923 37 103 0.0 0.0 0.00 0.04 0.04 80 1018.2
20260502005421 38 111 1.0 1.0 0.00 0.04 0.04 79 1018.2
20260502004920 38 162 0.0 0.0 0.00 0.04 0.04 79 1018.1
20260502004415 37 72 1.0 2.0 0.00 0.04 0.04 80 1018.1
20260502003912 38 83 1.0 1.0 0.00 0.04 0.04 88 1018.2
20260502003410 38 95 1.0 2.0 0.00 0.04 0.04 89 1018.1
20260502002906 38 154 1.0 2.0 0.00 0.04 0.04 91 1018.1
20260502002404 38 147 0.0 0.0 0.00 0.04 0.04 93 1018.2
20260502001901 38 151 1.0 1.0 0.00 0.04 0.04 93 1018.1
20260502001358 38 131 1.0 1.0 0.00 0.04 0.04 93 1018.0
20260502000855 38 146 1.0 1.0 0.00 0.04 0.04 92 1018.0
20260502000354 38 141 1.0 2.0 0.00 0.04 0.04 92 1018.0
20260501235849 38 106 2.0 2.0 0.00 0.04 0.04 92 1018.0
20260501235345 38 187 0.0 0.0 0.00 0.04 0.04 93 1018.1
20260501234840 38 120 0.0 0.0 0.00 0.04 0.04 93 1018.1
20260501234338 37 137 0.0 1.0 0.00 0.04 0.04 93 1017.9
20260501233836 37 119 1.0 1.0 0.00 0.04 0.04 93 1017.9
20260501233333 37 138 2.0 2.0 0.00 0.04 0.04 93 1018.0
20260501232829 37 133 3.0 3.0 0.00 0.04 0.04 93 1018.0
20260501232326 37 144 3.0 5.0 0.00 0.04 0.04 93 1017.9
20260501231824 37 107 3.0 3.0 0.00 0.04 0.04 93 1018.0
20260501231321 37 158 3.0 5.0 0.05 0.04 0.04 93 1018.0
20260501230820 37 112 3.0 3.0 0.05 0.04 0.04 91 1017.7
20260501230318 38 88 4.0 5.0 0.00 0.03 0.03 89 1018.1
20260501225815 39 76 1.0 1.0 0.07 0.03 0.03 88 1017.8
20260501225313 39 0 2.0 2.0 0.07 0.03 0.03 87 1018.0
20260501224809 40 354 3.0 5.0 0.00 0.02 0.02 83 1018.0
20260501224306 41 93 4.0 6.0 0.00 0.02 0.02 78 1017.9
20260501223803 42 71 4.0 5.0 0.00 0.02 0.02 76 1017.6
20260501223259 42 120 3.0 5.0 0.00 0.02 0.02 76 1017.7
20260501222755 42 142 3.0 5.0 0.00 0.02 0.02 76 1017.5
20260501222252 43 97 1.0 3.0 0.00 0.02 0.02 77 1017.4
20260501221749 43 107 3.0 3.0 0.00 0.02 0.02 76 1017.4
20260501221246 43 128 3.0 3.0 0.00 0.02 0.02 76 1017.4
20260501220744 43 107 4.0 5.0 0.00 0.02 0.02 77 1017.4
20260501220241 43 187 4.0 6.0 0.00 0.02 0.02 76 1017.6
20260501215738 43 119 0.0 1.0 0.00 0.02 0.02 76 1017.5
20260501215233 43 154 5.0 6.0 0.00 0.02 0.02 77 1017.6
20260501214729 43 152 1.0 1.0 0.00 0.02 0.02 77 1017.4
20260501214225 42 60 2.0 3.0 0.00 0.02 0.02 78 1017.4
20260501213721 43 64 1.0 1.0 0.00 0.02 0.02 77 1017.6
20260501213217 43 53 3.0 5.0 0.00 0.02 0.02 78 1017.3
20260501212714 42 128 5.0 7.0 0.00 0.02 0.02 79 1017.4
20260501212211 43 58 1.0 1.0 0.00 0.02 0.02 79 1017.4
20260501211707 43 26 3.0 3.0 0.00 0.02 0.02 79 1017.4
20260501211204 42 69 1.0 2.0 0.00 0.02 0.02 80 1017.5
20260501210701 43 350 2.0 3.0 0.00 0.02 0.02 80 1017.3
20260501210158 43 99 3.0 5.0 0.00 0.02 0.02 79 1017.2
20260501205654 42 95 2.0 2.0 0.00 0.02 0.02 81 1017.4
20260501205152 42 103 2.0 2.0 0.00 0.02 0.02 82 1017.4
20260501204649 43 86 3.0 3.0 0.00 0.02 0.02 83 1017.4
20260501204144 43 70 3.0 5.0 0.00 0.02 0.02 82 1017.3
20260501203641 43 66 2.0 2.0 0.00 0.02 0.02 83 1017.3
20260501203139 43 162 1.0 1.0 0.00 0.02 0.02 83 1017.4
20260501202635 43 138 5.0 7.0 0.00 0.02 0.02 81 1017.3
20260501202132 43 105 6.0 7.0 0.00 0.02 0.02 81 1017.2
20260501201629 43 91 3.0 5.0 0.00 0.02 0.02 81 1017.4
20260501201126 43 142 5.0 6.0 0.00 0.02 0.02 81 1017.2
20260501200623 44 62 4.0 5.0 0.00 0.02 0.02 80 1017.4
20260501200120 43 69 5.0 6.0 0.00 0.02 0.02 81 1017.3
20260501195618 44 62 4.0 6.0 0.00 0.02 0.02 82 1017.3
20260501195113 44 110 3.0 3.0 0.00 0.02 0.02 81 1017.1
20260501194609 43 16 2.0 2.0 0.00 0.02 0.02 82 1017.2
20260501194104 43 146 5.0 6.0 0.00 0.02 0.02 82 1017.1
20260501193602 43 119 5.0 6.0 0.00 0.02 0.02 83 1017.4
20260501193101 43 51 4.0 6.0 0.00 0.02 0.02 83 1017.5
20260501192557 43 95 4.0 6.0 0.00 0.02 0.02 82 1017.2
20260501192055 43 121 6.0 7.0 0.00 0.02 0.02 81 1017.0